Location: Ar Ranvel
(48.3000°N, 4.8833°W)
Time: 12:42:50
(UTC+00:00)

Cosmos 2173 Rocket - Pass Details

Date: 16 June 2021
Orbit: 945 x 1000 km, 83.0° (Epoch: 29 July)

Event Time Altitude Azimuth Distance (km) Brightness Sun altitude
Rises 21:59:17 0° 349° (N) 3,728 8.5 -11.7°
Reaches altitude 10° 22:01:50 10° 348° (NNW) 2,778 7.6 -11.9°
Maximum altitude 22:08:12 75° 265° (W) 1,039 4.2 -12.4°
Enters shadow 22:14:08 12° 181° (S) 2,614 5.7 -12.9°
